EST,Max TemperatureF,Mean TemperatureF,Min TemperatureF,Max Dew PointF,MeanDew PointF,Min DewpointF,Max Humidity, Mean Humidity, Min Humidity, Max Sea Level PressureIn, Mean Sea Level PressureIn, Min Sea Level PressureIn, Max VisibilityMiles, Mean VisibilityMiles, Min VisibilityMiles, Max Wind SpeedMPH, Mean Wind SpeedMPH, Max Gust SpeedMPH,PrecipitationIn, CloudCover, Events, WindDirDegrees
2012-12-1,79,75,71,63,61,58,75,65,50,30.20,30.17,30.14,10,10,9,15,12,24,0.00,2,,58
2012-12-2,79,75,71,65,63,60,78,67,56,30.25,30.19,30.16,10,10,8,20,11,28,0.00,4,Rain,70
2012-12-3,77,73,69,66,59,50,81,63,48,30.25,30.21,30.17,10,10,8,17,9,22,0.03,4,Rain,67
2012-12-4,77,72,68,65,60,51,88,67,51,30.25,30.20,30.17,10,9,2,17,9,23,0.22,6,Rain,60
2012-12-5,78,72,66,65,62,58,87,72,50,30.17,30.09,30.04,10,9,2,14,4,25,0.09,4,Rain,88
2012-12-6,79,72,66,69,65,62,100,84,60,30.03,29.98,29.93,10,8,1,9,2,,0.07,2,Rain,124
2012-12-7,80,72,64,69,66,64,100,84,62,30.00,29.96,29.93,10,8,1,12,4,,0.18,3,Rain,132
2012-12-8,80,73,66,72,69,64,97,82,65,30.05,30.01,29.98,10,10,7,15,5,,0.00,3,,113
2012-12-9,84,77,70,75,72,69,100,89,65,30.11,30.05,30.01,10,7,4,10,1,,0.02,4,,133
2012-12-10,82,76,69,74,72,70,100,88,70,30.04,30.00,29.94,10,6,0,14,3,21,0.00,4,Fog-Rain,157
2012-12-11,86,78,70,75,72,68,97,85,65,30.07,30.00,29.96,10,7,0,14,7,29,0.37,5,Fog-Rain-Thunderstorm,181
2012-12-12,82,78,73,73,71,68,94,80,65,30.12,30.08,30.04,10,10,10,16,7,21,0.00,1,,160
2012-12-13,81,72,64,72,68,62,100,87,72,30.12,30.10,30.05,10,10,10,15,6,16,0.00,5,,314
2012-12-14,78,70,62,67,63,61,96,84,60,30.15,30.11,30.07,10,10,10,15,9,22,0.04,5,Rain,354
2012-12-15,78,71,64,68,65,63,100,82,65,30.12,30.08,30.05,10,10,10,15,5,23,0.22,6,Rain,62
2012-12-16,81,72,64,68,65,63,97,77,56,30.07,30.02,29.98,10,10,10,14,4,18,0.00,2,,130
2012-12-17,82,72,63,67,65,62,100,80,52,30.00,29.98,29.92,10,10,10,12,2,17,0.00,1,,217
2012-12-18,82,74,66,71,66,63,100,79,51,30.04,29.99,29.95,10,10,10,12,3,17,0.00,1,,282
2012-12-19,82,72,63,67,62,56,100,73,45,30.12,30.07,30.04,10,10,10,8,5,,0.00,0,,44
2012-12-20,81,72,64,65,63,57,93,74,44,30.11,30.06,30.00,10,10,10,14,4,20,0.00,1,,159
2012-12-21,71,62,51,70,51,34,94,65,32,30.20,30.08,29.99,10,10,10,25,11,33,0.01,2,Rain,296
2012-12-22,64,55,46,39,32,25,71,47,23,30.29,30.24,30.20,10,10,10,17,11,24,0.00,0,,324
2012-12-23,73,60,48,53,45,35,81,58,41,30.27,30.20,30.16,10,10,10,10,4,,0.00,1,,12
2012-12-24,75,66,57,57,55,52,84,68,50,30.15,30.09,30.02,10,10,10,14,3,21,0.00,2,,134
2012-12-25,80,70,59,63,59,56,93,73,47,30.07,30.01,29.96,10,10,10,13,3,18,0.00,1,,129
2012-12-26,82,73,64,70,66,60,93,78,60,30.02,29.95,29.88,10,10,10,21,10,34,0.06,4,Rain,224
2012-12-27,72,63,54,59,49,42,90,67,34,30.10,30.05,30.01,10,10,10,12,7,,0.00,0,,317
2012-12-28,78,66,55,70,63,46,93,79,68,30.10,30.04,29.99,10,10,10,12,5,,0.00,4,,130
2012-12-29,82,74,63,72,69,56,93,81,67,30.13,30.02,29.96,10,10,10,20,9,25,0.00,2,,212
2012-12-30,69,60,51,54,50,44,90,69,52,30.30,30.24,30.15,10,10,10,16,13,25,0.00,3,,360
2012-12-31,75,70,66,58,55,53,65,59,50,30.32,30.26,30.22,10,10,10,17,12,24,0.00,6,,93